Flag for Albania Weather past 2 weeks in Tirana, Albania

Now
63 °F

Broken clouds.


Feels Like: 63 °F
Forecast: 52 / 74 °F
Wind: 3 mph from North

Location: Tirana Airport


UV Index: 5 (Moderate)

Visibility: N/A


Pressure: 29.80 "Hg

Humidity: 64%

Dew point: 50 °F

Location of TiranaLocation

Historic Weather in Tirana

°F

Tirana temperature yesterday

Maximum temperature yesterday: 68 °F (at 1:20 PM)
Minimum temperature yesterday: 50 °F (at 11:20 PM)
Average temperature yesterday: 59 °F

Past Weeks' High & Low Weather Summary

 TemperatureHumidityPressure
High73 °F (Apr 7, 1:50 PM)94% (Apr 6, 9:50 PM)30.09 "Hg (Apr 6, 9:50 PM)
Low39 °F (Apr 12, 4:20 AM)26% (Apr 10, 3:20 PM)29.65 "Hg (Apr 16, 4:50 AM)
Average54 °F73%29.91 "Hg
* Reported Apr 6 11:20 AM — Apr 21 11:20 AM, Tirana, Weather by CustomWeather, © 2014

Note: Actual official high and low records may vary slightly from our data, if they occured in-between our weather recording intervals... More about our weather records

Advertising

Historic Weather Conditions — Data for Previous 24 hours

 ConditionsComfort  
Time TempWeatherWind HumidityBarometerVisibility
11:20 AM
Apr 21
59 °FBroken clouds.3 mph82%29.80 "HgN/A
9:20 AM57 °FBroken clouds.No wind77%29.80 "HgN/A
8:50 AM55 °FBroken clouds.No wind88%29.80 "HgN/A
8:20 AM54 °FBroken clouds.No wind88%29.80 "HgN/A
7:50 AM54 °FBroken clouds.No wind82%29.83 "HgN/A
7:20 AM52 °FBroken clouds.3 mph88%29.83 "HgN/A
6:50 AM50 °FPartly cloudy.3 mph88%29.83 "HgN/A
6:20 AM50 °FPassing clouds.No wind88%29.83 "HgN/A
5:50 AM48 °FPassing clouds.5 mph94%29.83 "HgN/A
5:20 AM46 °FPassing clouds.2 mph93%29.83 "HgN/A
4:50 AM46 °FPassing clouds.3 mph93%29.83 "HgN/A
4:20 AM46 °FClear.3 mph93%29.83 "Hg10 mi
3:50 AM46 °FClear.2 mph93%29.86 "Hg10 mi
3:20 AM46 °FClear.3 mph93%29.86 "Hg10 mi
2:50 AM46 °FClear.3 mph93%29.86 "Hg10 mi
2:20 AM48 °FClear.2 mph94%29.86 "Hg10 mi
1:50 AM46 °FClear.2 mph93%29.89 "Hg10 mi
1:20 AM46 °FClear.5 mph93%29.89 "Hg10 mi
12:50 AM48 °FClear.2 mph87%29.89 "Hg10 mi
12:20 AM50 °FClear.No wind94%29.89 "Hg10 mi
11:50 PM
Apr 20
50 °FClear.No wind94%29.89 "Hg10 mi
11:20 PM50 °FClear.2 mph94%29.89 "Hg10 mi
10:50 PM52 °FClear.3 mph88%29.89 "Hg10 mi
10:20 PM54 °FClear.2 mph88%29.86 "Hg10 mi
9:50 PM54 °FPassing clouds.2 mph88%29.86 "HgN/A
9:20 PM57 °FPartly cloudy.2 mph72%29.86 "HgN/A
8:50 PM59 °FPartly cloudy.No wind72%29.86 "HgN/A
8:20 PM59 °FPartly sunny.3 mph72%29.86 "HgN/A
7:50 PM59 °FBroken clouds.2 mph77%29.86 "HgN/A
7:20 PM61 °FPartly sunny.2 mph68%29.86 "HgN/A
6:50 PM63 °FBroken clouds.3 mph64%29.83 "HgN/A
6:20 PM64 °FBroken clouds.2 mph56%29.83 "HgN/A
5:50 PM64 °FBroken clouds.5 mph60%29.83 "HgN/A
5:20 PM66 °FBroken clouds.5 mph49%29.83 "HgN/A
4:50 PM66 °FPartly sunny.6 mph52%29.83 "HgN/A
4:20 PM66 °FBroken clouds.7 mph52%29.83 "HgN/A
3:50 PM64 °FBroken clouds.8 mph56%29.83 "HgN/A
3:20 PM68 °FPartly sunny.6 mph46%29.83 "HgN/A
2:50 PM68 °FBroken clouds.8 mph46%29.83 "HgN/A
2:20 PM68 °FBroken clouds.9 mph43%29.83 "HgN/A
1:50 PM68 °FBroken clouds.10 mph43%29.83 "HgN/A
1:20 PM68 °FScattered clouds.15 mph43%29.83 "HgN/A
12:50 PM66 °FBroken clouds.12 mph46%29.83 "HgN/A
12:20 PM64 °FBroken clouds.9 mph52%29.86 "HgN/A
Weather by CustomWeather, © 2014

See weather overview